Miscellaneous Local Product
Issued by NWS North Platte, NE

Home | Current Version | Previous Version | Text Only | Print | Product List | Glossary On
Versions: 1 2 3 4 5 6 7 8 9 10 11 12 13 14 15 16 17 18 19 20 21 22 23 24 25 26 27 28 29 30 31 32 33 34 35 36 37 38 39 40 41 42 43 44 45 46 47 48 49 50
000
AXUS43 KLBF 050010
MISLBF


WESTERN AND NORTH CENTRAL NEBRASKA HOURLY WEATHER ROUNDUP
NATIONAL WEATHER SERVICE NORTH PLATTE NE
700 PM CDT WED MAY 04 2016

NOTE: "FAIR" INDICATES FEW OR NO CLOUDS BELOW 12,000 FEET WITH NO
SIGNIFICANT WEATHER AND/OR OBSTRUCTIONS TO VISIBILITY.

NOTE: STATIONS NOT REPORTING VARIABLES SUCH AS SKY/WEATHER OR
PRESSURE ARE PROVIDED BY RAWS AND APRS NETWORKS AND ARE NOT UNDER
NATIONAL WEATHER SERVICE QUALITY CONTROL.

...OBSERVATIONS IN AND NEAR THE EASTERN PANHANDLE OF NEBRASKA...

CITY           SKY/WX    TMP DP  RH WIND       PRES   REMARKS
PINE RIDGE     SUNNY     74  39  28 SE10      30.06F
CHADRON        SUNNY     76  41  28 S10       30.04F
ALLIANCE       SUNNY     72  38  29 E7        30.09F
SIDNEY         SUNNY     72  40  31 SE7       30.12F
BIG SPRINGS      N/A     77  41  27 NW5         N/A
$$

...OBSERVATIONS IN NORTHERN NEBRASKA AND FAR SOUTHERN SOUTH DAKOTA...

CITY           SKY/WX    TMP DP  RH WIND       PRES   REMARKS
WINNER         FAIR      73  39  29 N3        30.05F
VALENTINE      SUNNY     74  35  24 N5        30.07F
THEDFORD       SUNNY     74  37  26 CALM      30.08F
AINSWORTH      SUNNY     70  34  26 NW3       30.08S
O`NEILL        SUNNY     68  34  28 N8        30.06F
ORD            SUNNY     69  36  29 N12       30.04F
BROKEN BOW     SUNNY     72  45  37 NE7       30.06F
VALENTINE NWR    N/A     73  36  26 NE6         N/A
BUTTE            N/A     67  37  33 NW7         N/A
HALSEY           N/A     75  32  21 N6          N/A
CHAMBERS         N/A     73  37  26 N6          N/A
EWING            N/A     67  34  29 N7          N/A
$$

...OBSERVATIONS IN SOUTHWEST NEBRASKA AND FAR NORTHEAST COLORADO...

CITY           SKY/WX    TMP DP  RH WIND       PRES   REMARKS
HOLYOKE        FAIR      77  39  25 CALM      30.11F
IMPERIAL       MOSUNNY   76  38  25 NE5       30.09S
OGALLALA       SUNNY     74  40  29 E3        30.08F
NORTH PLATTE   SUNNY     74  37  26 NE9       30.07S
MCCOOK         SUNNY     76  40  27 NE7       30.06F
LEXINGTON      SUNNY     70  40  33 N7        30.07S
PAXTON           N/A     76  38  25 NE3         N/A
STAPLETON        N/A     73  40  29 CALM        N/A
GOTHENBURG       N/A     75  32  21 N7          N/A
CALLAWAY         N/A     73  37  26 NE8         N/A
$$

...OBSERVATIONS IN CENTRAL LINCOLN COUNTY AREA...

CITY           SKY/WX    TMP DP  RH WIND       PRES   REMARKS
N.P. AIRPORT   SUNNY     74  37  26 NE9       30.07S
N.P. DOWNTOWN    N/A     75  39  27 NE6         N/A
N.P. SOUTHEAST   N/A     75  37  25 NE3         N/A
N.P. HILLCREST   N/A     74  36  24 E8          N/A
$$

...SOME OBSERVATIONS FROM AROUND THE REGION...

CITY           SKY/WX    TMP DP  RH WIND       PRES   REMARKS
DENVER         MOSUNNY   72  32  23 E10       30.14F
LARAMIE        SUNNY     66  24  20 CALM      30.21S
CHEYENNE       SUNNY     69  34  27 SE8       30.16F
SCOTTSBLUFF    SUNNY     75  39  27 E8        30.08F
RAPID CITY     SUNNY     73  41  31 S15       30.03F
BISMARCK       SUNNY     78  46  32 S9        29.95F
PIERRE         SUNNY     73  38  27 W3        30.01F HAZE
SIOUX FALLS    MOSUNNY   66  32  28 N13       29.99F
OMAHA          SUNNY     68  39  34 N14       29.99F
GRAND ISLAND   SUNNY     69  31  24 N12       30.05F
KANSAS CITY    SUNNY     67  39  35 N10       29.97S
WICHITA        SUNNY     72  32  23 N14       30.02S
OKLAHOMA CITY  SUNNY     76  43  30 N15       30.00S
DALLAS         SUNNY     81  50  33 N12       29.96F
AMARILLO       SUNNY     77  36  22 N5        30.13F
DODGE CITY     SUNNY     73  42  32 N9        30.08S
HAYS           SUNNY     72  41  33 N6        30.06F
GOODLAND       SUNNY     73  44  35 NE8       30.11S
$$




USA.gov is the U.S. government's official web portal to all federal, state and local government web resources and services.